Content
SEND FEEDBACK

Daily
Averages
Monthly
Summary
United States of America

MANGUM, OKLAHOMA


Home > North America > United States > Oklahoma
Elevation: 463 meters     Latitude: 34 49N     Longitude: 099 25W

WEATHER
 
SELECT A DAY
Number of Records: 223,787;   Date Range: 5/16/05 - 8/30/14
 
SHARE

PRINT THIS DATA

[ ← Previous Day ]
WEATHER ALMANAC - 23 JANUARY, 2013
[ Next Day → ]
[ °F ]   °C
Weather ElementAverageHighLow
Temperature9.3 °C19 °C (3:55 pm)-1 °C (8:15 am)
Dewpoint3.9 °C8 °C (7:35 pm)-2 °C (8:15 am)
Humidity71.7 %100 % (8:35 am)40 % (3:35 pm)
Barometer1021.7 hPa1024 hPa (10:55 am)1019.3 hPa (5:15 pm)
Wind Speed9.5 km/h18.5 km/h (3:35 pm)
Weather ElementAverage
Visibility14.6 km
Wind DirectionESE (105.5 °)

Weather ElementTotal
Precipitation---
Heating Degree Days9.3 (Base 18.3)
Averaged from 67 records on 23 January, 2013
WEATHER CONDITIONS BREAKOUT
WIND DIRECTION BREAKOUT
WEATHER BY HOUR - 23 JANUARY, 2013
[ °F ]   °C
Local TimeTemperatureDewpointHumidityBarometerVisibilityWind DirectionWind SpeedGust SpeedPrecipitationEventsConditions
12:35 AM6 °C2 °C76 %1022.7 hPa16.1 kmEast (100°)11.1 km/hClear
12:55 AM5 °C1 °C76 %1022.4 hPa16.1 kmEast (90°)13 km/hClear
1:15 AM6 °C2 °C76 %1022 hPa16.1 kmEast (90°)13 km/hClear
1:35 AM6 °C2 °C76 %1022 hPa16.1 kmEast (90°)13 km/hClear
1:55 AM6 °C2 °C76 %1022 hPa16.1 kmEast (90°)13 km/hClear
2:15 AM6 °C2 °C76 %1022 hPa16.1 kmEast (80°)13 km/hClear
2:35 AM5 °C2 °C81 %1022.4 hPa16.1 kmESE (110°)13 km/hClear
2:55 AM6 °C2 °C76 %1022.4 hPa16.1 kmEast (100°)13 km/hClear
3:15 AM5 °C2 °C81 %1022.4 hPa16.1 kmEast (90°)9.3 km/hClear
3:35 AM5 °C1 °C76 %1022.4 hPa16.1 kmEast (80°)7.4 km/hClear
3:55 AM3 °C0 °C81 %1022 hPa16.1 kmESE (110°)5.6 km/hClear
4:15 AM2 °C0 °C87 %1022.4 hPa16.1 kmCalmClear
4:35 AM2 °C0 °C87 %1022 hPa16.1 kmCalmClear
4:55 AM3 °C1 °C87 %1022 hPa16.1 kmEast (100°)7.4 km/hClear
5:15 AM3 °C1 °C87 %1022.4 hPa16.1 kmESE (110°)11.1 km/hClear
5:35 AM4 °C1 °C81 %1022 hPa16.1 kmESE (120°)11.1 km/hClear
5:55 AM3 °C1 °C87 %1022 hPa16.1 kmESE (120°)11.1 km/hClear
6:15 AM2 °C0 °C87 %1022 hPa16.1 kmESE (110°)11.1 km/hClear
6:35 AM2 °C1 °C93 %1022.4 hPa11.3 kmEast (90°)11.1 km/hClear
6:55 AM3 °C1 °C87 %1022.4 hPa11.3 kmESE (120°)9.3 km/hClear
7:15 AM2 °C1 °C93 %1022.7 hPa8 kmEast (100°)9.3 km/hClear
7:35 AM2 °C1 °C93 %1023 hPa6.4 kmEast (100°)5.6 km/hClear
7:55 AM0 °C-1 °C93 %1023 hPa4 kmNorth (360°)11.1 km/hClear
8:15 AM-1 °C-2 °C93 %1023 hPa11.3 kmNorth (360°)9.3 km/hClear
8:35 AM0 °C0 °C100 %1023 hPa8 kmNorth (10°)7.4 km/hClear
8:55 AM1 °C0 °C93 %1023 hPa11.3 kmCalmClear
9:15 AM3 °C2 °C93 %1023 hPa16.1 kmNorth (360°)5.6 km/hClear
9:35 AM5 °C3 °C87 %1023 hPa16.1 kmCalmClear
9:55 AM8 °C5 °C81 %1023.4 hPa11.3 kmCalmClear
10:15 AM8 °C5 °C81 %1023.4 hPa16.1 kmCalmClear
10:35 AM10 °C5 °C71 %1023.7 hPa16.1 kmCalmClear
10:55 AM11 °C5 °C67 %1024 hPa16.1 kmCalmClear
11:15 AM12 °C5 °C62 %1024 hPa16.1 kmCalmClear
11:35 AM12 °C5 °C62 %1023.7 hPa16.1 kmCalmClear
11:55 AM13 °C5 °C58 %1023.4 hPa16.1 kmSSW (210°)5.6 km/hClear
12:15 PM13 °C5 °C58 %1023 hPa16.1 kmCalmClear
12:35 PM13 °C5 °C58 %1022.7 hPa16.1 kmCalmClear
12:55 PM15 °C5 °C51 %1022 hPa16.1 kmSSE (160°)5.6 km/hClear
1:15 PM15 °C6 °C55 %1021.7 hPa16.1 kmSSE (160°)7.4 km/hClear
1:35 PM16 °C6 °C52 %1021.3 hPa1.3 kmSSW (200°)13 km/hHaze
2:15 PM17 °C5 °C45 %1021 hPa16.1 kmSouth (180°)11.1 km/hClear
2:35 PM17 °C5 °C45 %1021 hPa16.1 kmSSW (200°)11.1 km/hClear
3:35 PM18 °C4 °C40 %1020 hPa16.1 kmSouth (180°)18.5 km/hClear
3:55 PM19 °C5 °C40 %1020 hPa16.1 kmSouth (170°)16.7 km/hClear
4:15 PM19 °C5 °C40 %1019.6 hPa16.1 kmSouth (170°)16.7 km/hClear
4:35 PM19 °C6 °C43 %1019.6 hPa16.1 kmSouth (180°)14.8 km/hClear
4:55 PM18 °C6 °C45 %1019.6 hPa16.1 kmSouth (190°)16.7 km/hClear
5:15 PM18 °C6 °C45 %1019.3 hPa16.1 kmSouth (190°)13 km/hClear
5:35 PM17 °C7 °C52 %1019.3 hPa16.1 kmSSW (200°)13 km/hClear
5:55 PM16 °C7 °C55 %1019.3 hPa16.1 kmCalmClear
6:15 PM15 °C7 °C59 %1019.6 hPa16.1 kmEast (90°)7.4 km/hClear
6:35 PM15 °C7 °C59 %1019.6 hPa16.1 kmSSE (150°)7.4 km/hClear
6:55 PM13 °C7 °C67 %1020 hPa16.1 kmEast (80°)11.1 km/hClear
7:15 PM13 °C7 °C67 %1020 hPa16.1 kmEast (80°)11.1 km/hClear
7:35 PM13 °C8 °C72 %1020.3 hPa16.1 kmEast (90°)13 km/hClear
7:55 PM12 °C8 °C77 %1020.3 hPa16.1 kmEast (80°)13 km/hClear
8:15 PM12 °C8 °C77 %1020 hPa16.1 kmEast (100°)13 km/hClear
8:35 PM12 °C7 °C72 %1020 hPa11.3 kmEast (100°)14.8 km/hClear
8:55 PM11 °C7 °C76 %1020 hPa11.3 kmESE (110°)14.8 km/hClear
9:15 PM10 °C7 °C82 %1020 hPa11.3 kmEast (100°)14.8 km/hClear
9:35 PM10 °C6 °C76 %1020 hPa11.3 kmEast (90°)14.8 km/hClear
9:55 PM11 °C7 °C76 %1020 hPa11.3 kmEast (90°)16.7 km/hClear
10:15 PM11 °C7 °C76 %1019.6 hPa16.1 kmEast (90°)14.8 km/hClear
10:55 PM11 °C6 °C71 %1020 hPa16.1 kmEast (90°)13 km/hClear
11:15 PM11 °C6 °C71 %1020.3 hPa16.1 kmEast (80°)13 km/hClear
11:35 PM11 °C6 °C71 %1020 hPa16.1 kmEast (80°)14.8 km/hClear
11:55 PM12 °C6 °C67 %1020 hPa16.1 kmEast (90°)16.7 km/hClear
Hourly data recorded from KAXS, located 0 kilometers away from Mangum, Oklahoma







STORIES FROM OUR PARTNERS